QPF
0.00 0.00 0.01 0.01 0.00 0.00 0.00 0.00 0.00 0.00 0.00 0.00 0.00 0.00 0.00 0.00 0.00 0.00 0.00 0.00 0.00 0.00 0.00 0.00 0.00 0.00 0.02 0.00 0.00 0.00 0.00 0.00 0.00 0.01 0.00 0.00 0.00 0.00 0.00 0.00 0.00 0.00 0.00
0.00 0.00 0.01 0.01 0.00 0.00 0.00 0.00 0.00 0.00 0.00 0.00 0.00 0.00 0.00 0.00 0.00 0.00 0.00 0.00 0.00 0.00 0.00 0.00 0.00 0.00 0.00 0.00 0.00 0.00 0.00 0.00 0.00 0.00 0.00 0.00 0.00 0.00 0.00 0.00 0.00 0.00 0.00
0.00 0.01 0.01 0.02 0.01 0.00 0.00 0.00 0.00 0.00 0.00 0.00 0.00 0.00 0.00 0.00 0.00 0.00 0.00 0.00 0.00 0.00 0.00 0.00 0.00 0.00 0.00 0.00 0.00 0.00 0.00 0.00 0.00 0.00 0.00 0.00 0.00 0.00 0.00 0.00 0.00 0.00 0.00
0.00 0.00 0.01 0.01 0.01 0.00 0.00 0.00 0.00 0.00 0.00 0.00 0.00 0.00 0.00 0.00 0.00 0.00 0.00 0.00 0.00 0.00 0.00 0.00 0.00 0.00 0.00 0.00 0.00 0.00 0.00 0.00 0.00 0.00 0.00 0.00 0.00 0.00 0.00 0.00 0.00 0.00 0.00
0.00 0.00 0.00 0.00 0.00 0.00 0.00 0.00 0.00 0.00 0.00 0.00 0.00 0.00 0.00 0.00 0.00 0.00 0.00 0.00 0.00 0.00 0.00 0.00 0.00 0.00 0.00 0.00 0.00 0.00 0.00 0.00 0.00 0.00 0.00 0.00 0.00 0.00 0.00 0.00 0.00 0.00 0.00
0.00 0.00 0.00 0.00 0.00 0.00 0.00 0.00 0.00 0.00 0.00 0.00 0.00 0.01 0.02 0.02 0.02 0.02 0.02 0.01 0.00 0.00 0.00 0.00 0.00 0.00 0.00 0.00 0.00 0.00 0.00 0.00 0.00 0.00 0.00 0.00 0.00 0.00 0.02 0.00 0.00 0.00 0.00
0.00 0.00 0.00 0.00 0.00 0.00 0.00 0.00 0.00 0.00 0.00 0.00 0.00 0.00 0.01 0.01 0.02 0.03 0.04 0.02 0.02 0.02 0.01 0.00 0.00 0.00 0.01 0.01 0.00 0.00 0.00 0.00 0.00 0.00 0.00 0.00 0.00 0.00 0.03 0.02 0.00 0.00 0.00
0.00 0.00 0.00 0.00 0.00 0.00 0.00 0.00 0.00 0.00 0.00 0.00 0.00 0.00 0.00 0.00 0.00 0.00 0.00 0.01 0.01 0.00 0.02 0.03 0.04 0.02 0.01 0.01 0.01 0.00 0.00 0.00 0.00 0.00 0.00 0.00 0.00 0.00 0.01 0.02 0.00 0.00 0.00
0.00 0.00 0.00 0.00 0.00 0.00 0.00 0.00 0.00 0.00 0.00 0.00 0.00 0.00 0.00 0.00 0.00 0.00 0.00 0.00 0.00 0.00 0.01 0.01 0.01 0.02 0.03 0.03 0.03 0.02 0.01 0.00 0.00 0.00 0.00 0.00 0.00 0.00 0.01 0.04 0.02 0.00 0.00
0.00 0.00 0.00 0.00 0.00 0.00 0.00 0.00 0.00 0.00 0.00 0.00 0.00 0.00 0.00 0.00 0.00 0.00 0.00 0.00 0.00 0.00 0.00 0.01 0.01 0.01 0.01 0.01 0.02 0.03 0.02 0.00 0.00 0.00 0.00 0.00 0.00 0.00 0.00 0.00 0.00 0.01 0.00
0.00 0.00 0.00 0.00 0.00 0.00 0.00 0.00 0.00 0.00 0.00 0.00 0.00 0.00 0.00 0.00 0.00 0.00 0.00 0.00 0.00 0.00 0.00 0.00 0.00 0.01 0.01 0.01 0.00 0.01 0.01 0.00 0.00 0.00 0.00 0.00 0.00 0.00 0.00 0.00 0.01 0.01 0.01
0.00 0.00 0.00 0.00 0.00 0.00 0.00 0.00 0.00 0.00 0.00 0.00 0.00 0.00 0.00 0.00 0.00 0.00 0.00 0.00 0.00 0.00 0.00 0.00 0.00 0.00 0.00 0.00 0.00 0.00 0.00 0.00 0.00 0.00 0.00 0.00 0.00 0.00 0.01 0.00 0.00 0.01 0.01
0.00 0.00 0.00 0.00 0.00 0.00 0.00 0.00 0.00 0.00 0.00 0.00 0.00 0.00 0.00 0.00 0.00 0.00 0.00 0.00 0.00 0.00 0.00 0.00 0.00 0.00 0.00 0.00 0.00 0.00 0.00 0.00 0.00 0.00 0.00 0.00 0.01 0.04 0.09 0.04 0.03 0.02 0.02
0.00 0.00 0.00 0.00 0.00 0.00 0.00 0.00 0.00 0.00 0.00 0.00 0.00 0.00 0.00 0.00 0.00 0.00 0.00 0.00 0.00 0.00 0.00 0.00 0.00 0.00 0.00 0.00 0.00 0.00 0.00 0.00 0.01 0.01 0.01 0.01 0.02 0.04 0.10 0.10 0.08 0.05 0.03
0.00 0.00 0.00 0.00 0.00 0.00 0.00 0.00 0.00 0.00 0.00 0.00 0.00 0.00 0.00 0.00 0.00 0.00 0.00 0.00 0.00 0.00 0.00 0.00 0.00 0.00 0.00 0.00 0.00 0.00 0.00 0.00 0.00 0.01 0.00 0.01 0.02 0.03 0.02 0.02 0.04 0.03 0.03
0.00 0.00 0.00 0.00 0.00 0.00 0.00 0.00 0.00 0.00 0.00 0.00 0.00 0.00 0.00 0.00 0.00 0.00 0.00 0.00 0.00 0.00 0.00 0.00 0.00 0.00 0.00 0.00 0.00 0.00 0.00 0.00 0.00 0.00 0.00 0.00 0.01 0.01 0.03 0.09 0.08 0.08 0.06
0.00 0.00 0.00 0.00 0.00 0.00 0.00 0.00 0.00 0.00 0.00 0.00 0.00 0.00 0.00 0.00 0.00 0.00 0.00 0.00 0.00 0.00 0.00 0.00 0.00 0.00 0.00 0.00 0.00 0.00 0.00 0.00 0.00 0.00 0.00 0.00 0.00 0.00 0.00 0.01 0.06 0.11 0.14
0.00 0.00 0.00 0.00 0.00 0.00 0.00 0.00 0.00 0.00 0.00 0.00 0.00 0.00 0.00 0.00 0.00 0.00 0.00 0.00 0.00 0.00 0.00 0.00 0.00 0.00 0.00 0.00 0.00 0.00 0.00 0.00 0.00 0.00 0.00 0.00 0.00 0.00 0.00 0.00 0.00 0.00 0.01
0.00 0.00 0.00 0.00 0.00 0.00 0.00 0.00 0.00 0.00 0.00 0.00 0.00 0.00 0.00 0.00 0.00 0.00 0.00 0.00 0.00 0.00 0.00 0.00 0.00 0.00 0.00 0.00 0.00 0.00 0.00 0.00 0.00 0.00 0.00 0.00 0.00 0.00 0.00 0.00 0.00 0.00 0.00
0.00 0.00 0.00 0.00 0.00 0.00 0.00 0.00 0.00 0.00 0.00 0.00 0.00 0.00 0.00 0.00 0.00 0.00 0.00 0.00 0.00 0.00 0.00 0.00 0.00 0.00 0.00 0.00 0.00 0.00 0.00 0.00 0.00 0.00 0.00 0.00 0.00 0.00 0.00 0.00 0.00 0.00 0.00
0.00 0.00 0.00 0.00 0.00 0.00 0.00 0.00 0.00 0.00 0.00 0.00 0.00 0.00 0.00 0.00 0.00 0.00 0.00 0.00 0.00 0.00 0.00 0.00 0.00 0.00 0.00 0.00 0.00 0.00 0.00 0.00 0.00 0.00 0.00 0.00 0.00 0.00 0.00 0.00 0.00 0.00 0.00
0.00 0.00 0.00 0.00 0.00 0.00 0.00 0.00 0.00 0.00 0.00 0.00 0.00 0.00 0.00 0.00 0.00 0.00 0.00 0.00 0.00 0.00 0.00 0.00 0.00 0.00 0.00 0.00 0.00 0.00 0.00 0.00 0.00 0.00 0.00 0.00 0.00 0.00 0.00 0.00 0.00 0.00 0.00
0.00 0.00 0.00 0.00 0.00 0.00 0.00 0.00 0.00 0.00 0.00 0.00 0.00 0.00 0.00 0.00 0.00 0.00 0.00 0.00 0.00 0.00 0.00 0.00 0.00 0.00 0.00 0.00 0.00 0.00 0.00 0.00 0.00 0.00 0.00 0.00 0.00 0.00 0.00 0.00 0.00 0.00 0.00
0.00 0.00 0.00 0.00 0.00 0.00 0.00 0.00 0.00 0.00 0.00 0.00 0.00 0.00 0.00 0.00 0.00 0.00 0.00 0.00 0.00 0.00 0.00 0.00 0.00 0.00 0.00 0.00 0.00 0.00 0.00 0.00 0.00 0.00 0.00 0.00 0.00 0.00 0.00 0.00 0.00 0.00 0.00
0.00 0.00 0.00 0.00 0.00 0.00 0.00 0.00 0.00 0.00 0.00 0.00 0.00 0.00 0.00 0.00 0.00 0.00 0.00 0.00 0.00 0.00 0.00 0.00 0.00 0.00 0.00 0.00 0.00 0.00 0.00 0.00 0.00 0.00 0.00 0.00 0.00 0.00 0.00 0.00 0.00 0.00 0.00
0.00 0.00 0.00 0.00 0.00 0.00 0.00 0.00 0.00 0.00 0.00 0.00 0.00 0.00 0.00 0.00 0.00 0.00 0.00 0.00 0.00 0.00 0.00 0.00 0.00 0.00 0.00 0.00 0.00 0.00 0.00 0.00 0.00 0.00 0.00 0.00 0.00 0.00 0.00 0.00 0.00 0.00 0.00
MSLP
1016.41 1016.17 1016.15 1016.28 1016.37 1016.47 1016.47 1016.51 1016.59 1016.70 1016.75 1016.74 1016.77 1016.82 1016.87 1016.91 1016.91 1016.90 1016.89 1016.90 1016.87 1016.80 1016.71 1016.61 1016.49 1016.39 1016.39 1016.41 1016.43 1016.41 1016.36 1016.28 1016.14 1016.12 1016.20 1016.23 1016.16 1016.19 1016.11 1016.16 1016.12 1016.09 1015.96
1016.25 1016.21 1016.20 1016.31 1016.44 1016.54 1016.62 1016.69 1016.75 1016.80 1016.90 1016.91 1016.89 1016.96 1016.98 1017.00 1017.01 1017.00 1016.98 1016.97 1016.95 1016.86 1016.79 1016.74 1016.68 1016.64 1016.61 1016.60 1016.60 1016.54 1016.51 1016.50 1016.49 1016.47 1016.50 1016.45 1016.37 1016.30 1016.33 1016.32 1016.30 1016.23 1016.15
1016.42 1016.26 1016.33 1016.51 1016.64 1016.71 1016.86 1016.89 1016.98 1016.98 1016.98 1017.00 1017.01 1017.02 1017.03 1017.02 1017.02 1017.03 1017.05 1017.05 1017.01 1016.92 1016.84 1016.66 1016.73 1016.76 1016.74 1016.73 1016.73 1016.70 1016.65 1016.63 1016.63 1016.66 1016.67 1016.70 1016.63 1016.47 1016.41 1016.40 1016.33 1016.26 1016.25
1016.60 1016.56 1016.63 1016.73 1016.85 1016.92 1016.99 1017.04 1017.11 1017.14 1017.07 1017.09 1017.12 1017.11 1017.13 1017.07 1017.02 1017.02 1017.03 1017.04 1017.02 1016.99 1016.92 1016.87 1016.84 1016.84 1016.85 1016.85 1016.78 1016.71 1016.65 1016.64 1016.69 1016.73 1016.75 1016.71 1016.69 1016.52 1016.44 1016.44 1016.37 1016.32 1016.31
1016.91 1016.96 1017.03 1017.09 1017.19 1017.24 1017.31 1017.30 1017.25 1017.27 1017.21 1017.17 1017.15 1017.15 1017.15 1017.11 1017.04 1016.98 1016.93 1016.94 1017.00 1017.01 1016.96 1016.89 1016.83 1016.82 1016.80 1016.80 1016.78 1016.70 1016.62 1016.58 1016.60 1016.64 1016.77 1016.72 1016.72 1016.60 1016.41 1016.33 1016.31 1016.30 1016.36
1017.35 1017.35 1017.40 1017.47 1017.58 1017.63 1017.69 1017.70 1017.65 1017.62 1017.56 1017.50 1017.45 1017.34 1017.18 1017.09 1017.04 1016.92 1016.87 1016.89 1016.93 1016.92 1016.88 1016.82 1016.79 1016.72 1016.65 1016.66 1016.60 1016.56 1016.56 1016.52 1016.53 1016.66 1016.67 1016.64 1016.54 1016.31 1015.99 1016.10 1016.26 1016.28 1016.28
1017.82 1017.81 1017.77 1017.81 1017.84 1017.91 1017.97 1018.03 1017.93 1017.88 1017.86 1017.78 1017.70 1017.57 1017.48 1017.35 1017.21 1017.11 1016.99 1016.89 1016.79 1016.71 1016.66 1016.61 1016.58 1016.52 1016.46 1016.43 1016.47 1016.42 1016.37 1016.39 1016.48 1016.58 1016.57 1016.51 1016.43 1016.10 1015.88 1015.93 1016.07 1016.10 1016.16
1018.11 1018.31 1018.37 1018.31 1018.26 1018.26 1018.31 1018.32 1018.17 1018.14 1018.10 1018.04 1017.91 1017.81 1017.72 1017.64 1017.54 1017.35 1017.18 1016.98 1016.78 1016.57 1016.43 1016.30 1016.24 1016.21 1016.20 1016.15 1016.18 1016.16 1016.24 1016.28 1016.31 1016.40 1016.44 1016.39 1016.19 1015.95 1015.72 1015.64 1015.80 1015.83 1015.89
1018.52 1018.70 1018.91 1018.82 1018.85 1018.72 1018.76 1018.68 1018.54 1018.50 1018.42 1018.34 1018.25 1018.18 1018.05 1017.99 1017.86 1017.69 1017.56 1017.32 1017.03 1016.73 1016.44 1016.19 1016.09 1015.99 1015.97 1015.92 1015.89 1015.93 1015.94 1016.09 1016.18 1016.17 1016.14 1016.13 1015.95 1015.75 1015.57 1015.38 1015.52 1015.66 1015.66
1019.18 1019.33 1019.34 1019.35 1019.35 1019.39 1019.35 1019.14 1018.98 1018.89 1018.74 1018.66 1018.58 1018.43 1018.36 1018.26 1018.15 1018.00 1017.83 1017.62 1017.34 1017.06 1016.70 1016.38 1016.10 1015.87 1015.69 1015.59 1015.56 1015.59 1015.62 1015.71 1015.86 1015.93 1015.84 1015.77 1015.65 1015.50 1015.35 1015.28 1015.22 1015.28 1015.40
1019.65 1019.89 1019.73 1019.78 1019.84 1019.75 1019.60 1019.60 1019.50 1019.34 1019.17 1019.06 1018.97 1018.84 1018.71 1018.60 1018.48 1018.23 1018.02 1017.79 1017.54 1017.23 1016.98 1016.63 1016.26 1016.00 1015.70 1015.43 1015.28 1015.22 1015.28 1015.44 1015.48 1015.55 1015.52 1015.32 1015.24 1015.14 1015.00 1014.86 1014.84 1014.79 1014.94
1020.12 1020.17 1020.08 1020.14 1020.19 1020.06 1019.81 1019.97 1019.87 1019.71 1019.66 1019.49 1019.31 1019.16 1019.00 1018.83 1018.61 1018.42 1018.19 1017.85 1017.66 1017.36 1017.14 1016.84 1016.51 1016.15 1015.85 1015.59 1015.33 1015.15 1015.10 1015.06 1015.13 1015.12 1015.03 1014.83 1014.72 1014.60 1014.38 1014.30 1014.23 1014.24 1014.39
1020.23 1020.27 1020.38 1020.34 1020.39 1020.31 1020.21 1020.12 1020.10 1019.97 1019.89 1019.76 1019.59 1019.43 1019.17 1019.03 1018.76 1018.68 1018.40 1018.15 1017.90 1017.48 1017.32 1016.99 1016.67 1016.38 1016.14 1015.81 1015.39 1015.18 1015.01 1014.96 1014.90 1014.78 1014.56 1014.41 1014.26 1013.83 1013.77 1013.82 1013.78 1013.78 1013.86
1020.27 1020.41 1020.54 1020.61 1020.50 1020.52 1020.45 1020.33 1020.35 1020.18 1020.11 1019.91 1019.74 1019.58 1019.47 1019.29 1019.04 1018.88 1018.66 1018.41 1018.19 1017.85 1017.57 1017.25 1016.97 1016.59 1016.21 1015.87 1015.53 1015.16 1014.91 1014.80 1014.65 1014.53 1014.40 1014.23 1014.01 1013.83 1013.60 1013.44 1013.46 1013.48 1013.52
1020.45 1020.66 1020.74 1020.72 1020.72 1020.72 1020.69 1020.55 1020.44 1020.35 1020.29 1020.10 1019.92 1019.77 1019.56 1019.54 1019.39 1019.15 1018.88 1018.60 1018.37 1018.05 1017.73 1017.46 1017.06 1016.70 1016.32 1015.98 1015.62 1015.38 1014.99 1014.68 1014.50 1014.38 1014.22 1014.02 1013.90 1013.74 1013.57 1013.25 1012.97 1012.97 1012.97
1020.59 1020.63 1020.77 1020.80 1020.82 1020.78 1020.80 1020.70 1020.65 1020.49 1020.39 1020.26 1020.20 1020.11 1019.89 1019.73 1019.59 1019.37 1019.14 1018.85 1018.56 1018.30 1017.93 1017.62 1017.31 1016.87 1016.54 1016.17 1015.81 1015.40 1015.11 1014.78 1014.47 1014.23 1014.01 1013.81 1013.64 1013.48 1013.30 1013.05 1012.84 1012.80 1012.74
1020.65 1020.70 1020.82 1020.76 1020.82 1020.88 1020.89 1020.82 1020.77 1020.72 1020.60 1020.58 1020.45 1020.24 1020.05 1019.86 1019.73 1019.51 1019.34 1019.13 1018.89 1018.47 1018.11 1017.71 1017.33 1016.88 1016.62 1016.16 1015.91 1015.53 1015.12 1014.76 1014.44 1014.19 1013.96 1013.75 1013.55 1013.29 1013.14 1012.96 1012.68 1012.54 1012.46
1020.67 1020.82 1020.72 1020.63 1020.85 1020.95 1020.99 1020.98 1020.94 1020.90 1020.79 1020.73 1020.61 1020.41 1020.30 1020.14 1019.86 1019.69 1019.57 1019.52 1019.20 1018.77 1018.42 1018.09 1017.81 1017.35 1017.00 1016.64 1016.21 1015.60 1015.21 1014.91 1014.56 1014.28 1013.98 1013.80 1013.64 1013.43 1013.23 1012.98 1012.77 1012.64 1012.46
1020.62 1020.75 1020.87 1020.91 1020.98 1021.08 1021.06 1021.06 1021.05 1020.96 1020.92 1020.91 1020.84 1020.63 1020.44 1020.27 1020.08 1019.95 1019.80 1019.62 1019.37 1019.09 1018.81 1018.55 1018.15 1017.80 1017.31 1016.92 1016.36 1015.75 1015.34 1014.90 1014.55 1014.22 1014.29 1014.12 1013.95 1013.75 1013.54 1013.30 1013.22 1013.03 1012.68
1020.65 1020.80 1020.91 1021.01 1021.13 1021.15 1021.24 1021.26 1021.26 1021.14 1021.04 1020.97 1020.77 1020.61 1020.40 1020.31 1020.09 1019.98 1019.79 1019.64 1019.39 1019.21 1018.94 1018.70 1018.39 1018.03 1017.55 1017.20 1016.58 1016.05 1015.42 1015.00 1014.71 1014.55 1014.62 1014.35 1014.31 1014.21 1014.04 1013.90 1013.78 1013.66 1013.58
1020.79 1020.95 1020.99 1021.15 1021.23 1021.31 1021.44 1021.49 1021.48 1021.41 1021.20 1021.02 1020.79 1020.59 1020.35 1020.28 1020.15 1020.12 1020.00 1019.78 1019.49 1019.37 1019.18 1018.92 1018.62 1018.24 1017.67 1017.27 1016.82 1016.23 1015.59 1015.30 1015.06 1015.03 1014.93 1014.82 1014.64 1014.55 1014.44 1014.53 1014.62 1014.50 1014.45
1020.74 1020.91 1021.04 1021.05 1021.15 1021.26 1021.30 1021.31 1021.37 1021.39 1021.28 1021.09 1020.92 1020.72 1020.61 1020.53 1020.45 1020.31 1020.41 1020.25 1019.90 1019.70 1019.46 1019.16 1018.91 1018.57 1018.15 1017.76 1017.50 1017.11 1016.55 1015.79 1015.48 1015.42 1015.23 1015.24 1015.21 1015.04 1014.97 1015.34 1015.34 1015.20 1015.10
1020.71 1020.78 1020.80 1020.88 1021.07 1021.20 1021.32 1021.35 1021.39 1021.43 1021.34 1021.28 1021.16 1021.01 1020.92 1020.72 1020.61 1020.59 1020.55 1020.44 1020.21 1019.89 1019.70 1019.44 1019.21 1018.95 1018.51 1018.04 1017.75 1017.63 1017.29 1017.05 1016.36 1015.62 1015.66 1015.81 1015.73 1015.82 1015.80 1015.81 1016.10 1016.11 1015.90
1020.39 1020.49 1020.62 1020.90 1021.10 1021.22 1021.31 1021.40 1021.53 1021.57 1021.67 1021.53 1021.41 1021.36 1021.21 1020.91 1020.79 1020.71 1020.60 1020.58 1020.54 1020.24 1020.03 1019.92 1019.72 1019.48 1019.07 1018.66 1018.15 1017.89 1017.88 1017.77 1017.38 1016.64 1015.88 1015.95 1016.05 1016.27 1016.27 1016.36 1016.64 1016.80 1016.61
1020.19 1020.40 1020.64 1020.80 1020.82 1020.87 1021.02 1021.16 1021.28 1021.49 1021.52 1021.51 1021.57 1021.50 1021.34 1021.09 1020.96 1020.82 1020.67 1020.66 1020.62 1020.37 1020.19 1020.04 1019.84 1019.69 1019.53 1019.34 1019.03 1018.79 1018.35 1018.08 1017.99 1017.81 1016.99 1016.86 1016.77 1016.84 1016.81 1016.92 1017.10 1017.19 1017.04
1020.07 1020.39 1020.57 1020.71 1020.70 1020.74 1020.80 1020.95 1021.07 1021.25 1021.22 1021.34 1021.40 1021.50 1021.34 1021.16 1021.01 1020.75 1020.59 1020.58 1020.46 1020.31 1020.23 1020.13 1019.91 1019.65 1019.44 1019.32 1019.42 1019.47 1019.15 1018.92 1018.64 1018.57 1018.02 1017.65 1017.70 1017.41 1017.38 1017.54 1017.70 1017.66 1017.47
Thickness
5744 5746 5746 5745 5744 5743 5743 5743 5742 5741 5741 5741 5740 5739 5738 5737 5737 5736 5736 5735 5734 5734 5734 5734 5734 5734 5733 5733 5732 5732 5732 5732 5732 5732 5730 5729 5729 5729 5729 5729 5729 5729 5730
5745 5745 5745 5744 5743 5743 5742 5741 5741 5741 5740 5739 5739 5738 5738 5737 5736 5735 5734 5734 5733 5732 5731 5731 5731 5730 5730 5729 5729 5729 5729 5729 5728 5728 5727 5727 5727 5726 5726 5725 5725 5726 5727
5744 5743 5743 5742 5741 5741 5740 5740 5739 5740 5739 5739 5738 5738 5737 5736 5735 5734 5733 5732 5731 5730 5730 5730 5728 5727 5726 5726 5725 5725 5725 5725 5724 5724 5723 5723 5723 5723 5723 5722 5722 5723 5723
5741 5741 5741 5740 5739 5739 5739 5738 5738 5738 5739 5738 5738 5737 5736 5735 5735 5733 5732 5731 5730 5729 5728 5727 5726 5725 5724 5723 5722 5722 5722 5722 5721 5720 5720 5720 5719 5720 5719 5719 5719 5719 5719
5738 5738 5737 5737 5736 5736 5736 5736 5736 5735 5736 5737 5736 5735 5734 5733 5733 5732 5731 5730 5729 5727 5726 5725 5724 5723 5722 5721 5720 5719 5719 5718 5718 5717 5716 5717 5716 5716 5716 5716 5716 5716 5715
5734 5734 5733 5733 5732 5732 5732 5732 5733 5732 5732 5732 5732 5732 5732 5731 5730 5730 5729 5727 5726 5724 5723 5722 5721 5720 5719 5718 5718 5717 5716 5716 5715 5714 5713 5713 5713 5714 5716 5714 5712 5712 5712
5730 5730 5730 5729 5730 5729 5729 5728 5729 5729 5728 5728 5728 5727 5727 5726 5725 5725 5724 5723 5722 5721 5720 5719 5718 5717 5717 5716 5715 5714 5713 5712 5712 5711 5710 5709 5709 5710 5711 5710 5709 5708 5708
5727 5726 5726 5726 5726 5726 5726 5725 5726 5725 5724 5724 5723 5722 5721 5720 5719 5719 5718 5717 5717 5717 5717 5716 5715 5714 5713 5712 5711 5710 5709 5708 5707 5707 5707 5706 5705 5706 5707 5707 5705 5705 5704
5722 5722 5721 5722 5721 5722 5720 5721 5721 5720 5719 5718 5717 5716 5715 5714 5712 5711 5710 5710 5710 5711 5711 5711 5710 5710 5709 5709 5708 5706 5705 5704 5702 5702 5702 5702 5702 5702 5702 5703 5701 5700 5700
5716 5715 5716 5717 5716 5716 5715 5715 5715 5714 5714 5712 5711 5710 5708 5707 5705 5705 5704 5703 5703 5704 5705 5706 5706 5706 5706 5705 5704 5703 5702 5701 5698 5697 5698 5697 5697 5696 5697 5698 5697 5697 5696
5711 5710 5712 5712 5711 5710 5709 5709 5709 5707 5707 5705 5703 5701 5701 5700 5699 5700 5699 5699 5699 5699 5699 5700 5701 5702 5702 5703 5702 5701 5699 5697 5696 5694 5693 5694 5693 5693 5692 5693 5693 5694 5692
5706 5705 5707 5706 5705 5704 5704 5703 5702 5700 5698 5697 5696 5696 5695 5695 5695 5695 5695 5695 5695 5694 5694 5694 5695 5696 5697 5697 5697 5697 5696 5695 5693 5692 5691 5692 5692 5692 5692 5691 5691 5691 5689
5701 5701 5700 5700 5699 5699 5698 5697 5695 5693 5691 5691 5690 5690 5691 5690 5691 5689 5690 5690 5690 5689 5689 5689 5689 5689 5690 5690 5691 5691 5690 5689 5688 5688 5688 5688 5689 5692 5690 5688 5687 5686 5686
5698 5697 5696 5694 5694 5693 5691 5690 5687 5687 5685 5686 5685 5684 5685 5684 5685 5683 5683 5682 5682 5682 5682 5682 5682 5682 5681 5682 5682 5683 5683 5682 5681 5681 5681 5680 5681 5683 5684 5684 5683 5682 5681
5692 5690 5689 5689 5687 5685 5683 5683 5682 5681 5680 5680 5679 5678 5678 5676 5676 5674 5674 5673 5673 5672 5672 5672 5673 5673 5673 5673 5673 5672 5672 5673 5672 5672 5672 5672 5672 5672 5673 5675 5677 5676 5675
5687 5686 5684 5683 5680 5678 5677 5676 5675 5675 5674 5673 5671 5670 5669 5668 5667 5665 5664 5663 5662 5661 5660 5661 5661 5661 5662 5662 5662 5661 5661 5661 5661 5661 5661 5661 5662 5662 5662 5663 5665 5666 5667
5681 5681 5678 5676 5674 5672 5672 5670 5669 5667 5666 5665 5663 5662 5661 5659 5658 5656 5653 5651 5650 5649 5648 5648 5649 5650 5651 5651 5650 5650 5651 5650 5650 5650 5650 5650 5650 5651 5652 5653 5655 5656 5657
5676 5674 5673 5671 5668 5667 5665 5664 5662 5660 5659 5657 5655 5653 5650 5647 5646 5645 5642 5639 5637 5637 5636 5637 5637 5639 5640 5639 5640 5642 5642 5641 5642 5641 5640 5639 5639 5639 5640 5641 5643 5643 5645
5671 5669 5666 5665 5663 5660 5658 5657 5655 5653 5650 5647 5644 5642 5640 5637 5635 5634 5631 5629 5627 5627 5626 5627 5628 5629 5630 5629 5631 5632 5632 5633 5633 5631 5629 5626 5624 5624 5626 5626 5626 5628 5631
5665 5663 5661 5659 5656 5653 5650 5648 5645 5643 5640 5638 5637 5634 5631 5627 5625 5623 5622 5620 5619 5619 5620 5619 5619 5620 5621 5620 5621 5621 5623 5623 5622 5620 5615 5610 5605 5605 5609 5612 5613 5614 5615
5658 5655 5654 5651 5648 5645 5641 5638 5635 5633 5631 5630 5627 5623 5622 5618 5616 5614 5613 5612 5613 5613 5612 5612 5611 5611 5612 5612 5610 5611 5613 5612 5610 5606 5602 5595 5591 5589 5592 5595 5596 5598 5597
5653 5649 5647 5645 5641 5638 5634 5631 5627 5623 5621 5618 5615 5613 5610 5608 5606 5605 5603 5604 5605 5604 5604 5603 5602 5600 5601 5601 5600 5596 5596 5601 5600 5596 5592 5586 5581 5579 5580 5580 5580 5582 5581
5644 5642 5640 5637 5634 5630 5625 5620 5616 5613 5611 5608 5605 5603 5600 5600 5600 5599 5598 5597 5597 5596 5594 5594 5593 5591 5591 5592 5591 5588 5585 5584 5583 5587 5582 5575 5572 5570 5569 5568 5565 5565 5565
5640 5637 5634 5629 5625 5621 5616 5610 5606 5603 5601 5599 5596 5594 5593 5594 5594 5593 5592 5590 5587 5587 5585 5583 5583 5581 5581 5580 5580 5579 5575 5572 5571 5570 5575 5570 5566 5562 5560 5557 5553 5550 5550
5636 5632 5627 5624 5621 5617 5610 5602 5599 5596 5594 5592 5590 5588 5588 5588 5587 5586 5585 5583 5581 5580 5578 5576 5574 5572 5570 5568 5567 5565 5565 5564 5560 5557 5559 5553 5553 5550 5548 5545 5541 5540 5539
5630 5625 5621 5617 5615 5612 5606 5600 5596 5594 5592 5588 5586 5583 5582 5582 5581 5581 5579 5577 5575 5573 5571 5568 5566 5564 5562 5560 5556 5551 5552 5550 5549 5546 5546 5544 5537 5536 5534 5530 5527 5525 5526